Home   Weather   Stuttgart   Past weeks

Flag for Germany Past Weather in Stuttgart, Baden-Württemberg, Germany — Yesterday and Last 2 Weeks

Now
64 °F

Scattered clouds.


Feels Like: 64 °F
Forecast: 54 / 68 °F
Wind: 3 mph from North

Location: Stuttgart-Echterdingen

Current Time: Aug 19, 2017 at 1:20:09 pm

Latest Report: Aug 19, 2017 at 12:20 pm


Visibility: N/A

Pressure: 30.12 "Hg

Humidity: 64%

Dew Point: 52 °F

Location of StuttgartLocation

Past Weather in Stuttgart — Graph

°F

Stuttgart Temperature Yesterday

Maximum temperature yesterday: 84 °F (at 2:20 pm)
Minimum temperature yesterday: 61 °F (at 5:20 am)
Average temperature yesterday: 69 °F

High & Low Weather Summary for the Past Weeks

 TemperatureHumidityPressure
High84 °F (Aug 15, 1:20 pm)100% (Aug 10, 1:50 am)30.21 "Hg (Aug 10, 1:50 am)
Low52 °F (Aug 7, 5:50 am)40% (Aug 15, 1:50 pm)29.83 "Hg (Aug 8, 8:50 am)
Average65 °F78%30.07 "Hg
* Reported Aug 4 12:20 pm — Aug 19 12:20 pm, Stuttgart. Weather by CustomWeather, © 2017

Note: Actual official high and low records may vary slightly from our data, if they occured in-between our weather recording intervals... More about our weather records

Advertising

Stuttgart Weather History for the Previous 24 Hours

Scroll right to see more
 ConditionsComfort  
Time TempWeatherWind HumidityBarometerVisibility
12:20 pm
Sat, Aug 19
64 °FScattered clouds.3 mph64%30.12 "HgN/A
11:50 am64 °FScattered clouds.6 mph68%30.15 "HgN/A
11:20 am63 °FScattered clouds.5 mph77%30.12 "HgN/A
10:50 am59 °FPartly sunny.3 mph88%30.12 "HgN/A
10:20 am59 °FPartly sunny.5 mph88%30.15 "HgN/A
9:50 am57 °FScattered clouds.5 mph88%30.15 "HgN/A
9:20 am57 °FScattered clouds.5 mph88%30.12 "HgN/A
8:50 am55 °FPartly sunny.5 mph94%30.12 "HgN/A
8:20 am55 °FBroken clouds.5 mph94%30.12 "HgN/A
7:50 am55 °FDrizzle. Broken clouds.1 mph88%30.12 "HgN/A
7:20 am55 °FDrizzle. Broken clouds.3 mph88%30.09 "HgN/A
6:56 am55 °FDrizzle. Partly sunny.9 mph88%30.09 "HgN/A
6:50 am55 °FDrizzle. Partly sunny.10 mph88%30.09 "HgN/A
6:20 am55 °FPassing clouds.10 mph88%30.09 "HgN/A
5:50 am57 °FPartly cloudy.10 mph94%30.09 "HgN/A
5:20 am57 °FPassing clouds.1 mph100%30.07 "HgN/A
4:50 am57 °FPassing clouds.1 mph100%30.07 "HgN/A
4:20 am59 °FPassing clouds.2 mph94%30.07 "HgN/A
4:05 am59 °FPassing clouds.1 mph94%30.07 "HgN/A
3:50 am59 °FPassing clouds.2 mph94%30.07 "HgN/A
3:20 am59 °FClear.2 mph100%30.07 "Hg10 mi
3:01 am59 °FClear.1 mph100%30.07 "Hg10 mi
2:50 am59 °FClear.2 mph100%30.07 "Hg10 mi
2:20 am59 °FPartly cloudy.5 mph94%30.07 "HgN/A
1:50 am61 °FPassing clouds.3 mph94%30.07 "HgN/A
1:20 am61 °FPassing clouds.5 mph88%30.07 "HgN/A
12:50 am61 °FPartly cloudy.3 mph94%30.07 "HgN/A
12:20 am61 °FPartly cloudy.2 mph88%30.07 "HgN/A
11:50 pm
Fri, Aug 18
61 °FPartly cloudy.3 mph94%30.07 "HgN/A
11:20 pm61 °FLight rain. Passing clouds.7 mph94%30.07 "HgN/A
10:50 pm61 °FLight rain. Passing clouds.5 mph94%30.04 "HgN/A
10:20 pm61 °FLight rain. Passing clouds.3 mph94%30.04 "HgN/A
9:50 pm61 °FPassing clouds.2 mph94%30.04 "HgN/A
9:20 pm61 °FPartly cloudy.3 mph100%30.04 "HgN/A
8:50 pm61 °FPartly cloudy.3 mph100%30.01 "HgN/A
8:20 pm61 °FSprinkles. Partly sunny.2 mph94%29.98 "HgN/A
7:54 pm61 °FThundershowers. Broken clouds.9 mph94%30.04 "Hg4 mi
7:33 pm64 °FThunderstorms. Partly sunny.17 mph83%30.04 "Hg2 mi
7:20 pm64 °FSprinkles. Partly sunny.18 mph83%29.98 "HgN/A
6:50 pm66 °FSprinkles. Partly sunny.16 mph83%29.98 "HgN/A
6:20 pm68 °FSprinkles. Partly sunny.24 mph88%29.95 "HgN/A
5:59 pm73 °FThundershowers. Partly sunny.17 mph78%29.92 "Hg5 mi
5:20 pm81 °FThundershowers. Broken clouds.17 mph54%29.89 "HgN/A
4:50 pm84 °FPartly sunny.16 mph45%29.86 "HgN/A
4:20 pm84 °FScattered clouds.5 mph48%29.89 "HgN/A
3:50 pm84 °FScattered clouds.3 mph51%29.92 "HgN/A
3:20 pm82 °FPassing clouds.7 mph51%29.92 "HgN/A
2:50 pm84 °FSunny.2 mph45%29.92 "Hg10 mi
2:20 pm84 °FSunny.5 mph45%29.95 "Hg10 mi
1:50 pm82 °FPassing clouds.6 mph51%29.95 "HgN/A
1:20 pm81 °FPassing clouds.6 mph54%29.98 "HgN/A
Weather by CustomWeather, © 2017

See weather overviewHow to use our weather pages